Weather reports worldwide

Advertisment
Coleshill, United Kingdom (3535): temperature & dewpoint: 10.11.2018 10:00:00 - 16.11.2018 10:00:00 (GMT)Coleshill, United Kingdom (3535): temperature -20cm & temperature -100cm: 10.11.2018 10:00:00 - 16.11.2018 10:00:00 (GMT)Coleshill, United Kingdom (3535): wind speed & gusts: 10.11.2018 10:00:00 - 16.11.2018 10:00:00 (GMT)Coleshill, United Kingdom (3535): wind direction: 10.11.2018 10:00:00 - 16.11.2018 10:00:00 (GMT)Coleshill, United Kingdom (3535): reduced air pressure: 10.11.2018 10:00:00 - 16.11.2018 10:00:00 (GMT)Coleshill, United Kingdom (3535): visibility: 10.11.2018 10:00:00 - 16.11.2018 10:00:00 (GMT)Coleshill, United Kingdom (3535): precipitation: 10.11.2018 10:00:00 - 16.11.2018 10:00:00 (GMT)
Date & Time tt [°C] td [°C] tt -20cm [°C] tt -100cm [°C] ff [km/h] ff [kn] fx [km/h] fx [kn] dd ppp [hPa] vv [km] rr [mm]
16.11.2018 10:00:00 11,7 10,9 - - 13 7 - - SE 1024,9 3,9 0,0
16.11.2018 09:00:00 11,5 10,9 10,2 10,7 8 4 - - SE 1025,1 3,3 0,0
16.11.2018 08:00:00 11,3 10,8 - - 8 4 - - SE 1024,7 2,8 0,0
16.11.2018 07:00:00 11,3 10,8 - - 8 4 - - SSE 1023,8 2,6 0,0
16.11.2018 06:00:00 11,4 10,8 - - 8 4 - - SSE 1023,2 2,4 0,0
16.11.2018 05:00:00 11,5 10,9 - - 8 4 - - SE 1022,6 2,2 0,0
16.11.2018 04:00:00 11,7 11,0 - - 8 4 - - SE 1022,2 2,4 0,0
16.11.2018 03:00:00 11,9 11,1 - - 5 3 - - SE 1022,2 2,9 0,0
16.11.2018 02:00:00 12,0 11,1 - - 5 3 - - SSE 1022,0 4,1 0,0
16.11.2018 01:00:00 12,0 11,0 - - 8 4 - - SE 1021,8 5 0,0
16.11.2018 00:00:00 12,2 11,0 - - 2 1 - - SSE 1021,8 5 0,0
15.11.2018 23:00:00 12,4 11,2 - - 11 6 - - S 1021,1 5 0,0
15.11.2018 22:00:00 12,8 11,1 - - 13 7 - - S 1020,9 8 0,0
15.11.2018 21:00:00 13,1 11,6 - - 11 6 - - S 1019,7 7 0,0
15.11.2018 20:00:00 13,2 11,7 - - 9 5 - - S 1019,2 8 0,0
15.11.2018 19:00:00 13,2 11,5 - - 9 5 - - S 1019,4 9 0,0
15.11.2018 18:00:00 12,9 11,0 - - 8 4 - - SE 1018,9 11 0,0
15.11.2018 17:00:00 13,2 10,9 - - 13 7 - - SSE 1018,8 11 0,0
15.11.2018 16:00:00 13,0 10,1 - - 11 6 - - S 1018,7 15 0,0
15.11.2018 15:00:00 13,5 9,9 - - 15 8 - - SSE 1018,7 17 0,0
15.11.2018 14:00:00 14,1 9,9 - - 15 8 - - S 1018,7 18 0,0
15.11.2018 13:00:00 13,5 9,1 - - 15 8 - - S 1019,0 20 0,0
15.11.2018 12:00:00 12,4 8,7 - - 16 9 - - S 1019,4 18 0,0
15.11.2018 11:00:00 11,3 8,8 - - 15 8 - - SSE 1019,9 16 0,0
15.11.2018 10:00:00 11,0 8,5 - - 18 10 - - SSE 1019,8 22 0,0
15.11.2018 09:00:00 10,8 8,9 9,7 10,7 11 6 - - SSE 1019,5 14 0,0
15.11.2018 08:00:00 9,8 8,5 - - 11 6 - - SSE 1019,6 12 0,0
15.11.2018 07:00:00 9,8 8,4 - - 11 6 - - SSE 1019,4 12 0,0
15.11.2018 06:00:00 9,7 8,2 - - 11 6 - - S 1019,1 14 0,0
15.11.2018 05:00:00 9,4 8,2 - - 13 7 - - S 1019,0 14 0,0
15.11.2018 04:00:00 9,4 8,2 - - 9 5 - - S 1019,1 12 0,0
15.11.2018 03:00:00 10,4 8,3 - - 15 8 - - S 1019,1 20 0,0
15.11.2018 02:00:00 9,8 8,6 - - 13 7 - - S 1019,3 12 0,0
15.11.2018 01:00:00 9,7 8,4 - - 13 7 - - S 1019,2 13 0,0
15.11.2018 00:00:00 10,1 8,3 - - 13 7 - - S 1019,3 24 0,0
14.11.2018 23:00:00 9,7 8,3 - - 15 8 - - S 1019,5 24 0,0
14.11.2018 22:00:00 8,8 7,1 - - 11 6 - - SSE 1019,7 19 0,0
14.11.2018 21:00:00 10,4 8,1 - - 13 7 - - S 1019,7 27 0,0
14.11.2018 20:00:00 10,4 7,5 - - 11 6 - - SSE 1019,7 30 0,0
14.11.2018 19:00:00 10,7 7,4 - - 13 7 - - SSE 1019,6 35 0,0
14.11.2018 18:00:00 10,7 7,2 - - 13 7 - - S 1019,2 40 0,0
14.11.2018 17:00:00 11,4 7,9 - - 15 8 - - S 1018,8 30 0,0
14.11.2018 16:00:00 11,9 8,1 - - 8 4 - - S 1018,9 35 0,0
14.11.2018 15:00:00 13,0 8,1 - - 18 10 - - S 1018,7 40 0,0
14.11.2018 14:00:00 13,3 7,9 - - 26 14 - - SSW 1018,7 30 0,0
14.11.2018 13:00:00 13,9 7,6 - - 29 16 50 27 S 1018,9 30 0,0
14.11.2018 12:00:00 12,9 7,3 - - 29 16 59 32 SSW 1019,1 26 0,0
14.11.2018 11:00:00 13,3 7,8 - - 34 18 55 30 S 1019,3 28 0,0
14.11.2018 10:00:00 12,3 8,6 - - 24 13 46 25 S 1019,5 30 0,0
14.11.2018 09:00:00 11,7 8,5 9,2 10,7 24 13 - - S 1019,4 35 0,0
14.11.2018 08:00:00 11,2 8,2 - - 22 12 - - S 1019,1 29 0,0
14.11.2018 07:00:00 11,3 8,1 - - 18 10 - - S 1018,7 30 0,0
14.11.2018 06:00:00 11,3 8,0 - - 26 14 - - S 1018,3 30 0,0
14.11.2018 05:00:00 11,3 8,2 - - 24 13 - - S 1018,2 30 0,0
14.11.2018 04:00:00 11,3 8,3 - - 24 13 - - S 1018,5 35 0,0
14.11.2018 03:00:00 10,8 8,5 - - 26 14 - - S 1019,0 26 0,0
14.11.2018 02:00:00 10,4 8,4 - - 21 11 - - S 1019,6 25 0,0
14.11.2018 01:00:00 10,0 8,4 - - 21 11 - - S 1020,5 18 0,0
14.11.2018 00:00:00 9,8 8,3 - - 24 13 - - S 1021,3 20 0,0
13.11.2018 23:00:00 9,2 7,6 - - 13 7 - - SSE 1021,7 22 0,0
13.11.2018 22:00:00 9,4 7,3 - - 13 7 - - S 1021,6 28 0,0
13.11.2018 21:00:00 9,4 7,3 - - 15 8 - - S 1021,6 30 0,0
13.11.2018 20:00:00 9,5 6,9 - - 15 8 - - S 1022,1 28 0,0
13.11.2018 19:00:00 9,6 6,7 - - 13 7 - - S 1022,3 30 0,0
13.11.2018 18:00:00 10,0 6,9 - - 15 8 - - S 1021,8 23 0,0
13.11.2018 17:00:00 10,0 7,1 - - 15 8 - - SSW 1021,8 24 0,0
13.11.2018 16:00:00 10,7 7,0 - - 13 7 - - SSW 1021,3 30 0,0
13.11.2018 15:00:00 11,7 6,2 - - 15 8 - - SSW 1020,9 30 0,0
13.11.2018 14:00:00 13,7 6,4 - - 9 5 - - SW 1020,3 30 0,0
13.11.2018 13:00:00 14,0 7,7 - - 11 6 - - WSW 1020,2 35 0,0
13.11.2018 12:00:00 12,2 7,0 - - 11 6 - - SW 1019,6 28 0,0
13.11.2018 11:00:00 11,2 6,7 - - 13 7 - - SW 1019,3 18 0,0
13.11.2018 10:00:00 9,7 6,7 - - 15 8 - - SSW 1018,4 27 0,0
13.11.2018 09:00:00 7,9 5,9 9,0 10,9 15 8 - - SSW 1017,5 30 0,0
13.11.2018 08:00:00 7,1 5,5 - - 15 8 - - SSW 1016,3 26 0,0
13.11.2018 07:00:00 6,9 5,6 - - 13 7 - - SSW 1015,1 30 0,0
13.11.2018 06:00:00 7,0 5,8 - - 11 6 - - SSW 1013,8 26 0,0
13.11.2018 05:00:00 7,3 6,0 - - 15 8 - - SSW 1012,7 25 0,0
13.11.2018 04:00:00 7,5 6,2 - - 18 10 - - SSW 1011,7 28 0,0
13.11.2018 03:00:00 7,3 5,8 - - 18 10 - - SSW 1011,0 35 0,0
13.11.2018 02:00:00 7,1 5,4 - - 18 10 - - S 1010,2 50 0,0
13.11.2018 01:00:00 7,7 5,3 - - 16 9 - - SSW 1009,8 50 0,0
13.11.2018 00:00:00 8,1 5,5 - - 18 10 - - SSW 1008,9 50 0,0
12.11.2018 23:00:00 8,4 5,2 - - 22 12 - - SSW 1008,3 50 0,0
12.11.2018 22:00:00 9,2 5,5 - - 22 12 46 25 SSW 1008,0 50 0,0
12.11.2018 21:00:00 9,2 6,6 - - 16 9 - - S 1007,9 21 0,0
12.11.2018 20:00:00 9,4 6,7 - - 21 11 - - S 1007,7 40 0,0
12.11.2018 19:00:00 9,6 6,0 - - 22 12 - - S 1007,9 50 0,0
12.11.2018 18:00:00 8,7 6,3 - - 13 7 - - S 1007,8 50 0,0
12.11.2018 17:00:00 9,7 5,8 - - 15 8 - - S 1007,6 50 0,0
12.11.2018 16:00:00 11,9 6,6 - - 22 12 - - S 1006,8 40 0,0
12.11.2018 15:00:00 12,8 6,5 - - 24 13 52 28 SSW 1006,3 40 0,0
12.11.2018 14:00:00 13,2 6,8 - - 26 14 50 27 S 1006,0 45 0,0
12.11.2018 13:00:00 12,8 8,1 - - 21 11 - - SSW 1005,9 19 0,0
12.11.2018 12:00:00 12,2 8,2 - - 21 11 - - S 1006,2 22 0,0
12.11.2018 11:00:00 11,9 8,4 - - 16 9 - - S 1006,5 18 0,0
12.11.2018 10:00:00 10,2 8,3 - - 18 10 - - S 1006,4 30 0,0
12.11.2018 09:00:00 8,5 7,5 9,2 11,0 16 9 - - S 1006,4 17 0,0
12.11.2018 08:00:00 7,2 6,5 - - 16 9 - - SSE 1006,0 18 0,0
12.11.2018 07:00:00 7,1 6,3 - - 15 8 - - SSE 1005,4 20 0,0
12.11.2018 06:00:00 7,1 6,3 - - 15 8 - - SSE 1005,0 16 0,0
12.11.2018 05:00:00 7,3 6,6 - - 13 7 - - SSE 1004,7 15 0,0
12.11.2018 04:00:00 7,2 6,5 - - 15 8 - - SSE 1004,5 12 0,0
12.11.2018 03:00:00 7,2 6,4 - - 13 7 - - SSE 1004,2 15 0,0
12.11.2018 02:00:00 7,1 6,2 - - 11 6 - - SSE 1004,1 13 0,2
12.11.2018 01:00:00 7,5 6,5 - - 13 7 - - SSE 1003,8 16 0,0
12.11.2018 00:00:00 7,1 6,1 - - 11 6 - - SSE 1003,7 16 0,0
11.11.2018 23:00:00 7,1 5,9 - - 15 8 - - SSE 1003,2 15 0,0
11.11.2018 22:00:00 7,1 5,7 - - 13 7 - - SSE 1002,8 22 0,0
11.11.2018 21:00:00 7,5 5,6 - - 13 7 - - SSE 1002,4 26 0,0
11.11.2018 20:00:00 7,7 5,6 - - 15 8 - - S 1002,1 25 0,0
11.11.2018 19:00:00 7,5 5,3 - - 11 6 - - S 1001,5 30 0,0
11.11.2018 18:00:00 8,1 5,4 - - 9 5 - - SSE 1001,0 35 0,0
11.11.2018 17:00:00 8,5 6,6 - - 9 5 - - S 1000,1 24 0,0
11.11.2018 16:00:00 9,8 7,3 - - 11 6 - - S 999,2 40 0,0
11.11.2018 15:00:00 10,4 7,5 - - 16 9 - - SSW 998,5 17 0,0
11.11.2018 14:00:00 12,0 7,1 - - 24 13 - - SSW 997,6 35 0,0
11.11.2018 13:00:00 11,3 6,4 - - 22 12 - - SSW 996,7 45 0,0
11.11.2018 12:00:00 11,0 6,8 - - 21 11 - - SSW 995,9 45 0,0
11.11.2018 11:00:00 10,9 8,5 - - 15 8 - - SSW 995,2 45 0,0
11.11.2018 10:00:00 9,1 7,7 - - 18 10 - - SSW 993,8 22 0,0
11.11.2018 09:00:00 8,5 7,8 9,7 11,0 15 8 - - S 992,6 30 0,0
11.11.2018 08:00:00 8,2 7,4 - - 15 8 - - SSE 992,0 17 0,2
11.11.2018 07:00:00 7,8 7,6 - - 15 8 - - SE 991,4 13 0,0
11.11.2018 06:00:00 7,4 7,1 - - 9 5 - - SE 991,9 12 0,0
11.11.2018 05:00:00 7,2 7,1 - - 13 7 - - SSE 992,2 9 0,0
11.11.2018 04:00:00 6,7 6,5 - - 11 6 - - SSE 992,3 13 0,0
11.11.2018 03:00:00 6,3 6,0 - - 8 4 - - S 992,7 9 0,0
11.11.2018 02:00:00 7,1 6,6 - - 9 5 - - SSE 992,7 11 0,0
11.11.2018 01:00:00 8,0 7,5 - - 11 6 - - S 992,7 12 0,2
11.11.2018 00:00:00 8,2 7,8 - - 11 6 - - SSE 992,6 11 0,0
10.11.2018 23:00:00 8,0 7,6 - - 9 5 - - SSE 992,6 11 0,0
10.11.2018 22:00:00 8,0 7,6 - - 11 6 - - SSE 992,5 11 0,0
10.11.2018 21:00:00 8,0 7,5 - - 11 6 - - SSE 992,6 12 0,0
10.11.2018 20:00:00 8,1 7,5 - - 13 7 - - SSE 992,4 14 0,0
10.11.2018 19:00:00 8,4 7,6 - - 11 6 - - SSE 992,4 15 0,0
10.11.2018 18:00:00 9,3 8,5 - - 13 7 - - SSE 992,2 23 0,0
10.11.2018 17:00:00 8,8 8,1 - - 11 6 - - SSE 991,9 26 0,0
10.11.2018 16:00:00 9,3 8,4 - - 15 8 - - SSE 991,5 30 0,0
10.11.2018 15:00:00 9,6 8,5 - - 18 10 - - SSE 991,1 14 1,0
10.11.2018 14:00:00 11,4 8,1 - - 18 10 - - S 991,1 30 0,2
10.11.2018 13:00:00 11,7 9,5 - - 21 11 - - S 991,1 15 0,2
10.11.2018 12:00:00 11,2 8,7 - - 16 9 - - SSE 991,7 12 0,0
10.11.2018 11:00:00 11,7 9,0 - - 15 8 - - SSE 992,2 13 0,0
10.11.2018 10:00:00 9,5 8,1 - - 13 7 - - SSE 992,7 13 0,0

tt = temperature
td = dewpoint
tt -20cm = temperature -20cm
tt -100cm = temperature -100cm
ff = wind speed
fx = gusts
dd = wind direction
ppp = reduced air pressure
vv = visibility
rr = precipitation

Next stations